{"data":{"norad_id":58005,"epoch":"2026-05-24T23:11:15.887040Z","epoch_age_seconds":84753,"freshness":"FRESH","line1":"1 58005U 23153Q   26144.96615610  .00000391  00000+0  23748-4 0  9993","line2":"2 58005  43.0056 356.1267 0001339 264.3087  95.7612 15.27568297146568","mean_motion":15.27568297,"eccentricity":0.0001339,"inclination_deg":43.0056,"raan_deg":356.1267,"arg_perigee_deg":264.3087,"mean_anomaly_deg":95.7612,"bstar":2.3748e-5,"rev_number":14656,"period_min":94.267470909682,"perigee_km":482.16542174496,"apogee_km":484.00285676606,"semimajor_km":6861.2211392555,"source":"CELESTRAK","updated_at":"2026-05-25T13:38:18.492124Z"}}